This demonstration page uses our WeatherBlox Daily Observations layout. Learn more.

Left ArrowRight Arrow

38.88101, -77.10428

Hourly Observations for May 30, 2021

Temp ( °F °C ) Dew Point ( °F °C ) Humidity (%) Winds ( mph kmh ) Pressure ( in mb ) Visibility ( mi km ) Precip ( " mm )
12:52 am 00:52 Cloudy 51 10.6 47 8.3 86 86 NNE 14 22 30.13 1020 10 16 0.00 0.00
1:52 am 01:52 Cloudy 51 10.6 47 8.3 86 86 NE 15 24 30.11 1020 10 16 N/A
2:52 am 02:52 Cloudy 51 10.6 46 7.8 83 83 NNE 13 20 30.12 1020 10 16 0.00 0.00
3:25 am 03:25 Cloudy with Light Rain 51 10.6 46 7.8 83 83 NNE 12 19 30.11 1020 7 11 0.02 0.51
3:52 am 03:52 Cloudy with Light Rain 51 10.6 46 7.8 83 83 NNE 12 19 30.12 1020 7 11 0.04 1.02
4:52 am 04:52 Cloudy with Light Rain 50 10 46 7.8 86 86 N 13 20 30.11 1020 7 11 0.06 1.52
5:52 am 05:52 Cloudy with Light Rain 50 10 46 7.8 86 86 N 17 28 30.12 1020 10 16 0.04 1.02
6:52 am 06:52 Cloudy 50 10 46 7.8 86 86 N 12 19 30.12 1020 10 16 0.01 0.25
7:52 am 07:52 Cloudy with Light Rain 51 10.6 46 7.8 83 83 N 15 24 30.14 1021 10 16 0.00 0.00
8:52 am 08:52 Cloudy 52 11.1 46 7.8 80 80 NNE 13 20 30.15 1021 10 16 0.00 0.00
9:52 am 09:52 Cloudy 53 11.7 46 7.8 77 77 N 15 24 30.16 1021 10 16 N/A
10:52 am 10:52 Cloudy 54 12.2 45 7.2 72 72 N 10 17 30.17 1022 10 16 N/A
11:52 am 11:52 Cloudy 55 12.8 46 7.8 72 72 NNE 10 17 30.16 1022 10 16 N/A
12:52 pm 12:52 Cloudy 54 12.2 46 7.8 75 75 NNW 9 15 30.17 1022 10 16 N/A
1:52 pm 13:52 Cloudy 55 12.8 46 7.8 72 72 NNW 12 19 30.16 1022 10 16 N/A
2:52 pm 14:52 Cloudy 57 13.9 47 8.3 69 69 N 14 22 30.16 1021 10 16 N/A
3:52 pm 15:52 Cloudy with Light Rain 56 13.3 48 8.9 75 75 NNW 10 17 30.17 1022 10 16 0.00 0.00
4:52 pm 16:52 Cloudy 57 13.9 47 8.3 69 69 NNW 12 19 30.16 1021 10 16 0.00 0.00
5:43 pm 17:43 Cloudy 57 13.9 46 7.8 67 67 N 14 22 30.16 1021 10 16 N/A
5:52 pm 17:52 Cloudy 57 13.9 46 7.8 67 67 N 14 22 30.16 1021 10 16 N/A
6:16 pm 18:16 Cloudy with Light Rain 57 13.9 46 7.8 67 67 N 16 26 30.17 1022 10 16 0.00 0.00
6:52 pm 18:52 Cloudy 56 13.3 46 7.8 70 70 NNW 16 26 30.18 1022 10 16 0.00 0.00
7:52 pm 19:52 Cloudy 56 13.3 46 7.8 70 70 NW 9 15 30.20 1023 10 16 N/A
8:52 pm 20:52 Cloudy 55 12.8 46 7.8 72 72 N 13 20 30.21 1023 10 16 N/A
9:41 pm 21:41 Cloudy 54 12.2 45 7.2 72 72 N 9 15 30.22 1023 10 16 N/A
9:52 pm 21:52 Cloudy 55 12.8 46 7.8 72 72 NW 9 15 30.23 1024 10 16 N/A
10:52 pm 22:52 Partly Cloudy 54 12.2 45 7.2 72 72 NW 6 9 30.24 1024 10 16 N/A
11:52 pm 23:52 Mostly Clear 51 10.6 46 7.8 83 83 W 7 11 30.24 1024 10 16 N/A

Powered by AerisWeather